Theta_e
275 275 275 275 275 275 275 275 276 275 275 275 275 275 275 275 276 275 275 275 275 275 274 274 274 274 274 274 274 274 274 274 274 274 275 275 275 275 274 274 275 275 276 276 277 277 279 280 281 281 282 282 283 285 288 291 292 292 292 293 294 295
274 274 274 274 274 274 275 275 275 275 275 275 275 276 275 275 274 274 274 274 274 274 274 274 274 274 274 274 274 274 274 274 274 274 274 274 275 274 274 274 274 274 274 275 275 276 278 279 279 279 280 281 281 283 286 289 291 291 292 292 294 295
274 274 274 274 274 275 275 274 274 274 274 274 274 274 274 274 274 273 273 273 273 273 273 273 273 273 274 274 274 274 274 274 275 274 274 274 274 274 273 273 273 273 274 274 275 275 276 277 277 278 279 280 281 282 285 287 290 290 291 292 292 294
274 274 274 274 274 274 273 274 274 274 274 274 274 274 273 273 273 273 272 273 273 272 272 272 273 273 273 273 273 273 274 274 274 274 274 273 273 273 273 273 273 273 273 273 274 274 275 275 275 276 278 279 280 281 283 285 288 290 291 291 291 293
274 274 274 273 273 273 273 273 273 273 273 273 273 272 272 272 272 272 272 272 272 272 272 272 272 272 272 272 273 273 273 273 273 274 273 272 272 272 272 272 272 272 273 273 273 273 273 273 274 276 277 278 278 279 280 282 285 288 290 290 290 291
273 273 273 273 273 272 272 272 272 272 272 272 272 272 272 272 272 272 271 271 271 271 271 271 272 272 272 272 272 272 273 273 273 273 272 272 272 271 271 272 272 272 272 272 272 272 271 272 273 274 275 276 277 278 279 281 283 287 289 290 290 290
272 273 272 272 272 272 272 272 272 271 271 271 271 271 271 271 271 271 271 270 270 270 270 270 271 271 271 271 272 272 272 272 272 272 272 271 271 270 270 270 271 271 271 271 270 271 271 271 272 272 273 274 277 278 279 280 282 285 288 290 290 290
273 272 272 272 272 271 271 271 271 271 271 271 271 270 270 271 271 270 270 269 269 269 269 269 270 270 270 270 271 271 272 271 271 271 271 271 270 270 270 269 270 270 270 270 270 270 270 271 271 271 272 273 274 276 277 278 281 285 288 289 290 290
272 272 271 271 271 271 270 270 270 269 269 269 270 270 270 269 269 269 268 268 268 267 268 268 269 269 269 270 270 271 271 271 270 270 269 270 269 268 268 269 269 269 269 269 270 270 270 270 270 271 272 272 273 274 276 278 280 284 287 289 290 290
272 271 271 271 270 270 270 269 269 269 269 268 269 269 269 269 268 268 267 267 267 267 267 268 268 268 269 269 270 270 270 270 269 269 268 268 268 268 267 267 268 268 269 269 269 270 270 270 270 271 271 272 273 274 276 278 279 282 285 288 289 290
271 270 270 270 270 269 268 268 268 268 268 268 268 268 268 268 267 267 266 266 266 266 267 267 268 268 268 269 269 269 268 268 267 267 266 266 266 267 267 267 267 267 267 268 268 269 269 269 269 270 271 272 273 275 276 278 279 282 284 287 288 289
270 270 270 269 268 267 267 267 267 267 267 267 267 267 267 267 266 266 265 265 265 266 266 267 267 267 268 268 267 267 266 266 266 265 265 265 265 266 266 266 267 267 267 267 267 268 269 269 270 272 275 276 274 275 276 278 279 282 284 287 288 288
270 269 269 268 267 267 266 267 267 267 267 267 267 266 267 266 265 265 265 265 265 266 266 266 266 267 266 266 266 266 265 265 264 264 264 264 265 265 266 266 266 267 267 267 267 267 268 269 270 274 276 278 279 278 278 279 280 282 284 286 288 287
269 269 268 267 267 266 266 266 266 266 266 266 266 266 266 265 265 264 264 265 265 265 265 265 266 265 265 264 264 264 263 263 263 263 263 264 264 265 266 266 266 266 267 267 267 267 268 268 272 274 275 277 279 280 279 280 281 282 283 285 287 288
269 268 267 266 266 266 266 266 265 265 265 265 265 265 264 264 264 264 264 264 264 265 265 265 265 264 263 263 263 263 262 262 262 262 262 263 264 265 265 266 266 266 267 267 267 267 268 268 272 274 275 276 278 280 280 279 280 281 282 284 285 286
268 268 267 266 266 266 266 266 265 265 265 265 265 264 264 263 263 264 263 264 264 264 264 264 263 262 261 261 261 261 261 261 261 261 262 263 264 265 265 266 266 266 266 267 267 267 268 268 271 274 275 276 277 279 280 279 280 281 281 282 284 286
267 267 266 266 266 266 265 264 265 265 264 264 263 263 263 263 263 263 263 264 264 263 263 262 261 261 260 260 260 260 260 260 261 261 262 263 264 264 265 265 265 266 266 267 267 268 268 269 273 275 276 277 279 280 281 279 280 281 281 282 283 285
267 266 266 266 265 264 264 264 264 263 263 263 263 262 263 263 262 263 263 263 263 262 262 261 260 260 259 259 259 259 259 260 260 260 262 263 264 265 266 266 267 266 266 267 267 268 268 269 274 275 276 277 279 281 280 280 281 281 281 282 283 285
266 266 265 264 264 264 263 264 263 262 262 262 262 262 262 262 262 262 262 261 261 261 261 260 259 258 258 258 258 258 259 260 260 261 263 263 264 265 266 266 266 267 267 267 268 268 269 269 273 275 276 277 279 280 279 280 281 281 282 282 283 284
266 266 265 263 263 264 264 263 262 261 261 261 261 261 261 261 261 261 261 260 260 260 260 259 258 258 258 258 258 258 259 260 262 262 264 264 265 265 266 267 267 268 268 268 268 269 269 269 272 275 276 278 279 280 279 280 281 281 282 282 283 285
265 264 264 263 262 263 263 262 261 261 260 260 261 261 260 260 260 260 260 259 259 259 258 258 257 257 257 257 258 259 259 261 262 263 265 265 265 266 267 267 267 268 269 269 269 272 271 270 271 275 276 278 279 279 280 280 281 281 282 283 283 285
264 263 263 262 262 263 262 261 261 260 260 260 260 259 259 259 259 259 259 259 258 258 257 257 257 257 257 257 258 259 261 263 263 263 263 264 265 265 266 267 268 268 269 270 270 270 271 270 271 272 276 277 279 281 280 281 281 280 281 283 283 284
263 263 262 263 263 262 261 261 260 259 259 259 259 258 259 259 259 259 258 257 257 256 256 257 257 257 258 259 259 261 262 262 262 262 263 263 264 264 265 265 266 268 269 271 272 271 271 271 271 272 277 278 280 281 282 280 280 281 282 283 283 284
262 262 262 262 262 261 261 260 258 258 258 258 257 258 259 258 258 257 256 256 256 256 256 256 257 258 258 259 261 261 260 261 261 262 262 262 263 263 264 265 267 268 269 272 272 272 271 273 275 273 276 278 280 281 282 281 281 282 282 283 283 284
261 261 261 262 261 261 261 259 257 257 257 256 257 258 258 257 257 256 255 255 255 255 256 256 257 258 259 260 261 260 259 260 261 261 262 262 262 262 263 264 265 266 267 269 271 273 274 274 274 277 276 279 281 282 283 284 283 285 284 284 284 284
261 260 260 260 260 260 259 258 256 256 256 256 257 258 257 256 255 255 254 254 254 255 256 257 257 258 259 260 260 259 259 259 260 261 261 261 261 262 262 263 264 265 265 267 269 271 273 274 276 278 280 280 282 283 284 285 286 286 285 286 286 286
259 259 258 259 259 259 258 258 256 255 254 256 257 256 255 255 254 253 253 253 254 255 256 256 257 258 259 259 259 259 259 259 260 259 260 260 261 261 261 261 263 264 265 266 268 269 270 272 273 275 277 280 284 286 286 286 287 288 288 287 287 287
257 256 256 258 258 258 258 257 256 254 255 256 256 255 254 253 252 252 253 253 254 255 256 256 257 258 259 259 259 259 259 259 259 259 259 260 260 260 260 261 262 264 265 265 266 267 269 271 272 273 275 278 280 280 282 285 287 287 288 288 288 288
256 255 255 255 257 257 257 255 256 256 256 255 255 254 253 252 252 252 253 253 254 255 255 256 257 258 258 258 259 259 259 259 259 259 259 259 259 259 260 261 263 263 264 264 266 267 268 269 269 270 272 274 274 276 278 279 283 287 287 287 287 287
255 255 255 255 257 257 256 255 255 255 254 254 254 253 252 251 252 252 252 252 254 254 255 256 259 258 257 257 258 258 259 259 259 259 259 259 259 259 260 262 263 263 263 264 265 265 265 266 267 268 269 271 273 274 276 278 280 282 285 286 287 287
255 255 255 256 257 256 254 253 254 254 254 254 253 252 251 251 252 252 252 253 253 254 255 256 256 256 257 257 258 259 259 258 259 260 260 261 262 263 263 263 263 264 265 266 265 264 264 265 266 267 273 273 276 275 275 276 278 281 283 285 288 287
254 254 254 255 256 254 253 253 253 253 254 253 252 252 250 250 251 251 251 252 253 253 254 255 255 256 256 257 257 258 258 262 265 263 261 261 266 268 269 269 265 266 267 267 266 266 265 265 267 273 275 275 276 277 278 279 280 282 283 285 287 287
254 254 253 254 254 253 252 252 252 252 252 253 252 252 250 250 250 250 251 252 252 254 255 255 255 256 256 257 257 258 257 257 259 264 266 266 267 267 268 269 270 270 271 269 266 268 271 272 273 274 274 275 275 276 277 278 280 281 283 285 285 285
254 253 253 254 253 252 251 251 251 251 251 251 251 251 250 249 249 249 250 251 252 254 255 255 255 255 256 256 257 257 257 256 256 257 262 266 266 267 267 268 269 270 270 271 270 269 266 269 272 273 273 273 274 274 276 277 280 282 283 285 287 285
254 254 254 252 251 251 251 250 250 251 251 251 251 250 249 249 249 249 250 251 253 254 254 254 254 255 255 255 256 256 256 255 255 254 255 258 264 266 266 266 268 269 270 271 270 271 270 270 271 272 272 272 272 273 274 277 282 283 284 286 285 284
253 253 252 251 250 250 249 249 250 251 251 251 250 249 248 248 249 249 250 251 253 253 253 253 253 254 254 256 256 256 255 255 255 255 255 254 255 256 260 264 266 268 268 269 269 270 270 270 270 271 271 271 271 271 272 271 270 274 274 275 278 284
252 251 252 252 251 250 250 248 250 251 250 249 249 248 248 248 249 250 252 254 254 252 252 252 253 253 254 255 255 255 255 255 255 255 255 254 254 254 254 255 257 262 267 265 265 268 269 269 269 270 270 270 270 269 269 267 260 260 261 263 264 267
251 250 250 250 249 249 246 248 250 250 249 249 248 247 247 248 249 249 250 251 252 252 252 252 252 253 254 255 254 255 255 255 255 255 255 255 255 255 254 255 256 257 262 267 267 268 267 268 268 268 268 268 269 268 266 257 257 257 258 260 261 263
Wind_Speed
6 6 5 5 5 6 7 7 7 7 6 5 6 9 9 10 8 8 8 8 9 9 10 11 11 10 11 11 12 14 14 17 15 16 16 16 17 15 17 17 16 16 15 15 15 14 15 14 12 12 12 13 13 14 13 12 11 9 8 9 9 10
6 4 4 5 5 6 7 7 6 7 6 6 7 8 8 9 10 11 11 11 10 12 11 11 10 11 11 12 13 14 17 15 18 16 16 18 15 18 17 17 17 17 16 15 16 16 15 13 12 12 12 12 12 13 13 13 12 11 8 8 8 8
3 3 3 4 5 6 6 5 7 6 5 6 6 9 11 11 10 10 11 11 12 13 14 14 12 13 12 14 14 15 14 18 16 16 17 13 18 16 18 18 17 17 16 16 16 16 14 13 14 12 12 12 13 12 13 14 14 13 10 7 9 9
3 3 3 3 5 6 6 6 6 6 6 7 7 8 8 10 11 10 11 11 12 13 14 14 13 13 14 16 15 16 20 15 15 18 15 20 17 17 17 19 17 16 17 16 16 15 15 15 17 16 13 12 13 13 12 11 14 12 11 8 9 9
3 3 4 4 6 6 6 6 6 7 7 8 7 9 11 9 11 11 11 12 12 13 14 14 14 14 16 17 17 19 15 19 19 13 19 15 17 17 16 17 17 18 17 17 16 16 15 16 17 15 13 12 13 13 14 15 15 14 12 9 9 9
2 3 4 4 5 5 5 5 6 6 7 8 8 10 11 11 11 11 11 12 14 14 14 15 14 17 17 17 15 16 21 18 15 19 15 17 15 17 17 17 18 18 18 17 17 17 16 17 16 16 15 16 15 13 13 14 15 14 12 10 9 8
3 4 4 4 5 5 5 6 6 7 8 8 9 10 9 10 11 11 12 12 15 15 14 15 16 18 19 19 18 21 18 16 19 13 19 16 18 18 18 17 17 18 18 17 17 17 16 16 17 17 16 16 14 14 13 14 16 15 12 10 10 9
3 3 4 5 5 5 5 6 6 7 8 9 8 10 11 10 10 11 12 13 14 15 16 16 17 18 19 19 19 18 19 20 14 19 15 16 21 21 18 18 16 16 18 18 17 17 17 16 17 18 17 16 16 15 14 14 16 16 14 11 10 9
5 4 5 6 4 4 5 6 7 7 8 9 8 9 10 11 11 11 12 13 14 14 15 15 17 18 18 19 19 19 18 14 18 16 17 18 18 18 18 18 18 17 18 19 17 17 17 17 17 17 16 16 16 16 16 14 15 16 13 11 10 10
5 6 6 5 4 5 5 5 6 7 8 10 10 9 9 9 11 13 13 13 14 14 15 16 17 17 18 17 19 18 15 18 17 17 17 15 18 18 18 18 18 18 17 17 17 16 16 17 17 16 16 16 16 15 15 14 14 16 14 13 11 10
8 7 4 4 4 6 7 7 7 8 8 8 9 10 10 10 11 13 14 14 14 15 14 16 16 16 17 17 17 15 19 15 15 18 17 16 16 16 17 18 18 19 19 19 18 18 17 16 16 14 13 14 15 15 15 14 14 14 14 14 12 10
7 5 3 4 4 5 8 9 9 8 10 11 10 10 10 10 12 12 14 14 14 14 14 15 16 16 17 18 17 19 16 16 19 16 16 17 16 17 17 17 17 17 17 18 18 16 15 14 13 17 25 22 16 15 13 13 14 14 13 13 11 10
5 3 2 2 4 6 6 7 8 9 10 10 11 11 11 10 12 13 12 14 14 14 15 14 14 16 19 16 17 16 17 17 15 16 17 16 16 16 16 15 16 16 16 16 17 17 15 14 14 23 23 24 26 19 15 14 13 13 13 13 12 11
5 1 2 5 5 5 6 8 9 10 10 11 12 12 11 12 12 13 14 13 14 14 15 14 16 17 15 16 16 15 15 16 16 16 16 17 17 15 14 15 16 16 15 14 15 16 15 15 19 25 25 27 26 23 16 13 12 11 12 12 12 10
2 1 2 2 4 6 6 7 9 10 10 12 12 11 12 12 12 13 14 14 14 14 14 16 17 16 16 15 15 16 16 15 15 16 16 17 16 15 16 16 15 15 15 15 16 16 16 16 21 24 26 26 26 26 22 14 14 13 12 12 13 12
2 1 1 2 3 5 6 6 8 9 9 10 11 11 12 13 14 13 14 14 14 14 15 15 16 16 16 15 15 16 16 15 16 16 15 16 16 16 16 15 15 16 15 14 15 15 15 17 21 25 25 25 26 26 22 14 14 13 13 13 13 13
2 1 2 2 4 5 6 7 7 9 10 10 12 11 12 12 13 14 14 15 15 15 16 17 15 15 15 16 16 16 16 16 17 17 15 15 15 15 14 14 15 14 14 14 14 14 15 15 25 25 25 25 25 25 22 15 14 13 12 13 14 15
3 2 2 2 4 5 6 7 8 10 11 10 11 11 11 12 12 13 13 15 15 16 15 15 18 17 18 18 16 15 16 16 16 17 17 16 15 14 13 14 13 14 16 15 14 15 16 16 27 26 25 25 25 26 15 13 13 13 12 13 14 15
5 3 2 2 4 5 5 6 8 9 11 11 10 10 11 11 12 13 14 15 16 16 16 16 17 17 17 16 16 16 16 17 18 16 14 15 15 14 13 13 12 13 12 15 14 15 15 15 22 25 25 24 25 21 13 13 12 12 12 13 14 15
5 2 0 2 3 3 5 6 8 9 10 11 11 11 12 12 13 13 14 15 14 14 16 16 16 17 17 16 17 18 16 15 13 14 15 15 15 16 17 15 14 13 12 14 16 14 14 15 19 26 25 25 25 21 14 12 11 12 12 12 14 13
3 2 0 1 3 6 6 7 8 9 10 11 12 11 12 12 14 14 15 17 16 16 16 15 15 16 17 17 17 16 17 16 14 13 13 14 15 16 16 14 15 14 11 12 14 22 21 16 19 27 26 28 26 20 13 13 12 12 11 11 12 12
3 1 3 4 5 5 6 6 8 9 10 11 11 12 12 13 14 14 15 15 15 15 14 14 16 16 15 18 18 16 15 14 15 16 17 16 14 15 14 15 13 16 14 12 13 13 13 14 15 18 25 25 27 27 18 12 11 11 11 10 11 11
4 3 3 3 4 5 6 6 8 9 9 11 11 12 13 14 14 15 15 15 15 15 15 14 14 17 16 15 15 14 14 14 15 17 16 16 15 15 16 17 16 16 14 12 11 12 13 12 15 18 25 25 26 27 24 13 13 13 12 11 11 11
3 3 3 3 6 5 5 6 8 9 10 10 11 13 13 14 14 14 15 15 15 15 15 15 15 14 13 14 13 15 15 14 15 15 15 14 15 17 18 16 15 14 14 12 11 11 11 14 22 18 22 27 27 28 30 18 15 16 13 14 12 11
3 3 3 5 5 6 6 5 8 9 9 11 12 12 13 13 14 14 14 15 14 14 15 14 15 15 12 12 13 15 16 15 14 15 14 14 15 15 16 16 15 15 15 14 12 12 11 10 11 21 19 25 27 27 27 29 22 25 19 14 14 13
3 3 3 5 4 4 5 5 7 9 11 12 11 12 12 12 13 13 14 14 13 14 14 14 14 13 12 13 13 13 15 15 14 14 13 13 14 13 14 14 15 15 15 15 15 13 13 13 13 16 21 20 27 26 27 27 29 27 17 14 12 11
3 4 3 4 4 4 3 4 6 9 10 11 11 11 13 13 13 13 13 13 13 14 13 13 13 13 11 12 12 13 13 14 14 14 12 12 12 12 13 14 14 15 15 15 15 15 15 14 14 14 18 26 24 25 26 27 28 27 28 17 12 12
4 4 4 5 3 3 3 4 5 7 10 10 10 11 12 13 14 13 14 13 12 13 13 15 13 11 11 12 11 12 11 13 13 12 12 11 11 12 13 14 14 14 15 15 14 15 15 15 14 13 14 15 18 20 23 24 23 27 25 21 16 16
5 4 3 3 3 2 4 3 5 5 8 9 10 11 11 12 12 12 12 13 13 12 12 13 12 13 12 11 11 11 11 11 12 12 12 11 12 12 12 13 14 15 15 14 15 15 15 14 13 14 13 13 14 14 15 15 15 15 17 15 13 14
4 2 1 2 3 3 3 4 5 5 7 8 8 9 10 11 11 11 12 13 12 11 12 12 16 15 11 11 11 11 12 12 12 12 12 12 12 11 10 12 13 14 15 14 13 13 13 13 12 13 14 17 16 16 15 14 14 13 9 7 7 8
3 0 1 2 2 3 3 4 4 5 8 8 7 8 9 10 11 11 11 11 10 11 11 11 11 11 12 12 11 10 11 12 13 13 11 12 11 11 13 11 11 12 10 10 11 12 12 12 13 13 19 21 25 21 17 15 13 12 10 10 13 9
3 1 1 2 2 3 3 4 4 5 6 6 7 8 8 10 10 9 9 10 10 10 11 10 11 11 11 11 11 12 12 16 21 16 13 11 21 27 25 23 15 15 13 10 9 10 13 12 15 25 29 27 27 27 27 25 25 23 19 19 20 12
1 1 0 0 1 3 3 4 4 5 7 7 8 8 8 8 8 8 8 10 9 12 11 10 11 11 11 11 12 11 13 13 15 20 23 25 27 26 27 26 28 28 26 18 14 14 22 24 27 30 30 30 30 29 27 25 22 22 22 22 15 11
2 2 0 0 1 2 3 4 4 5 6 6 7 7 7 7 7 8 9 9 9 11 10 10 11 11 11 11 11 11 12 13 14 16 21 26 25 28 27 26 28 30 27 28 26 20 13 22 28 31 31 31 31 30 28 25 22 20 20 21 20 12
3 1 0 0 1 2 3 3 5 6 6 7 7 7 8 8 7 8 9 9 10 10 11 10 10 11 11 12 13 12 12 13 14 16 18 21 29 30 26 25 30 32 30 29 31 31 27 26 27 31 32 32 32 31 29 26 17 12 13 17 11 9
3 2 1 0 1 2 2 3 4 6 7 7 7 7 6 7 7 7 7 8 10 9 9 9 9 10 10 10 11 12 12 12 12 13 15 13 16 19 25 28 32 33 32 30 32 33 32 31 31 32 32 33 33 32 28 22 19 29 33 24 8 6
3 1 1 2 1 1 2 3 4 6 6 6 7 7 6 7 7 6 8 13 11 7 8 8 8 9 10 10 10 11 11 12 12 11 12 12 13 13 15 14 19 25 31 25 26 32 34 33 32 33 31 33 33 32 26 28 20 19 17 16 13 11
3 2 1 1 0 1 2 3 4 5 5 6 6 6 6 6 6 6 7 7 9 8 7 8 8 8 9 9 9 10 10 10 10 12 12 11 13 11 10 12 15 14 20 30 31 36 33 35 33 31 32 30 33 32 31 21 16 16 14 13 10 10
Wind_Direction
243 247 261 281 272 273 285 296 302 302 303 302 302 307 311 312 313 308 304 303 300 299 298 297 295 288 286 285 286 288 287 287 286 291 288 291 289 289 291 289 287 286 283 286 290 287 280 280 288 295 297 299 300 299 287 270 258 243 236 234 236 241
242 263 291 293 291 298 297 298 303 306 311 313 312 308 309 311 314 314 310 308 302 299 296 291 286 287 287 287 289 289 290 287 294 291 295 291 294 290 289 286 285 286 285 285 285 283 283 285 291 292 292 294 292 293 291 283 267 255 242 242 238 245
293 304 284 281 285 281 289 296 303 303 306 308 310 310 311 312 309 307 305 308 305 304 302 299 295 290 288 287 286 285 283 288 285 294 291 294 292 292 288 285 284 284 283 280 280 283 285 293 294 292 289 287 288 287 286 285 277 264 255 247 251 248
291 281 279 274 279 285 293 303 304 315 319 315 313 308 306 308 310 308 306 305 301 300 300 299 298 294 292 291 286 291 295 286 290 290 291 292 291 291 287 286 282 281 281 280 278 280 285 289 290 289 282 279 283 286 289 288 282 270 259 255 260 259
252 255 263 272 281 287 298 306 311 309 310 313 311 309 306 308 304 306 305 303 302 300 299 299 298 297 293 292 291 289 287 297 290 291 292 286 292 290 290 286 282 280 280 279 279 280 284 284 281 279 283 285 280 280 285 286 283 273 257 251 253 257
256 256 267 279 278 290 299 299 299 305 308 311 312 310 309 308 307 305 305 303 301 302 302 302 302 300 297 292 289 288 297 291 290 292 282 288 286 291 289 289 284 281 278 278 278 279 278 278 278 283 285 285 281 276 277 280 281 278 263 249 250 250
253 255 262 271 275 282 292 298 305 310 310 313 313 307 304 305 305 306 306 305 304 305 305 304 305 300 297 293 292 289 287 296 294 288 291 286 288 290 291 288 284 279 276 275 276 276 274 275 277 278 279 275 275 279 280 281 281 277 268 254 250 248
255 266 267 267 270 276 292 299 307 312 308 305 304 303 306 306 307 305 308 308 308 309 310 308 305 302 299 297 296 293 293 294 294 298 290 288 291 292 288 286 285 282 278 277 275 274 274 274 274 274 274 275 276 276 275 277 279 276 269 260 251 248
260 259 258 259 265 281 297 309 313 309 304 302 305 307 308 310 310 308 307 309 308 307 307 306 304 301 299 295 292 297 295 292 300 299 298 294 288 289 290 288 285 282 279 276 275 274 272 272 271 271 271 273 272 269 268 268 271 272 269 257 250 246
259 249 251 262 283 303 306 307 305 307 309 310 311 311 311 311 313 312 313 313 311 308 306 306 302 301 296 294 299 294 293 298 298 298 297 294 291 290 291 289 287 284 281 278 276 275 274 272 271 270 270 269 269 268 266 264 267 271 275 267 253 246
238 245 259 284 313 322 322 322 324 319 313 308 309 313 314 313 312 312 311 311 308 306 305 304 304 300 297 295 291 294 298 296 298 300 299 296 292 289 288 288 285 284 281 277 275 275 273 270 267 266 265 265 261 258 258 260 263 265 265 263 256 245
239 253 276 319 327 332 331 327 322 321 316 314 316 314 312 316 310 309 310 307 306 304 302 299 298 300 302 303 303 304 303 302 303 300 295 293 291 288 286 285 283 279 278 280 277 274 272 268 266 263 262 260 259 257 257 257 259 262 265 263 257 248
244 258 254 316 348 337 329 315 313 314 312 313 316 314 314 316 310 309 307 305 304 304 303 302 303 306 305 303 304 303 305 303 302 300 297 292 289 287 286 283 281 280 278 277 279 277 273 269 266 266 265 263 260 259 257 255 256 259 260 260 254 252
233 221 14 348 340 335 327 322 319 317 316 318 315 314 315 313 310 308 306 303 305 306 308 309 312 309 308 308 304 305 306 304 303 300 297 294 290 283 276 277 279 281 279 277 277 276 274 270 267 267 269 269 265 259 257 257 257 256 255 258 258 254
193 100 12 350 338 327 324 321 315 315 318 314 310 311 312 312 310 308 307 308 308 309 312 315 314 311 310 310 310 308 307 304 301 300 297 293 289 286 281 280 281 279 279 273 272 272 272 270 268 267 267 266 263 260 258 259 260 259 260 258 257 256
177 136 71 350 326 318 313 313 304 304 307 304 308 314 313 313 311 309 307 308 310 314 315 317 316 314 313 311 309 309 307 304 302 300 295 293 290 284 280 277 278 281 277 272 269 269 271 270 272 271 268 265 263 260 259 261 260 260 262 262 258 254
172 129 58 15 336 323 319 316 316 315 314 318 316 314 310 309 308 309 309 311 314 317 321 319 315 309 311 312 312 309 306 303 302 301 299 295 285 283 280 280 284 280 278 275 271 269 269 270 272 272 270 268 261 256 255 255 255 253 252 253 255 252
139 80 42 2 327 323 320 321 327 323 315 316 309 308 308 307 307 307 312 315 317 319 319 318 316 318 317 313 312 309 306 304 301 302 301 290 282 274 270 274 272 274 279 275 272 270 267 268 275 273 270 267 264 260 254 252 251 250 249 250 252 249
102 77 57 324 314 314 324 330 330 320 314 312 309 308 309 312 312 314 317 318 319 320 321 322 319 315 313 313 310 308 307 306 304 296 290 286 281 279 274 271 273 279 272 270 270 268 268 270 274 275 271 268 262 257 254 254 253 250 250 251 250 248
86 84 102 293 282 330 341 338 326 319 313 312 314 318 320 318 316 318 317 314 316 318 321 320 318 315 312 311 309 307 304 300 291 290 291 289 295 298 296 288 280 274 267 261 269 266 265 266 270 275 272 266 262 258 257 257 258 256 252 253 249 247
110 168 174 232 337 354 350 337 328 322 319 319 322 324 319 319 319 321 321 321 323 321 319 316 315 313 311 309 307 306 304 304 299 296 304 306 304 302 302 298 293 283 266 260 259 269 270 266 269 270 270 268 262 258 257 256 253 257 254 253 253 244
132 99 29 16 354 353 344 339 333 328 323 323 323 320 320 321 320 318 319 317 319 319 317 315 313 311 311 308 306 304 303 312 317 316 311 307 306 304 302 302 298 295 284 268 266 266 259 258 262 262 261 260 260 258 257 252 258 262 263 258 256 247
71 42 18 5 359 359 346 345 339 330 325 321 321 319 319 319 319 321 321 319 316 316 314 314 312 310 308 304 301 305 313 317 315 312 310 310 309 308 307 306 303 298 288 274 276 269 261 248 254 259 259 260 260 258 256 255 257 261 260 261 252 244
66 33 18 19 7 3 350 350 337 325 327 324 319 319 318 321 323 322 320 317 316 315 315 313 312 307 306 305 308 316 314 313 311 308 311 310 309 310 309 312 312 311 307 306 289 274 259 253 255 253 255 255 257 256 253 252 249 247 255 255 253 246
79 38 21 4 8 3 349 351 336 330 328 322 317 321 320 321 322 322 319 316 315 318 315 314 313 313 311 312 316 315 314 315 313 312 313 313 313 312 314 315 317 313 313 310 309 306 283 268 263 259 259 261 259 255 252 248 246 247 248 245 245 242
78 44 27 10 5 353 352 349 340 331 327 318 322 322 321 320 322 320 318 317 318 317 317 316 315 313 313 317 317 315 314 317 318 318 318 318 316 317 319 317 314 314 314 315 314 314 317 316 311 303 292 271 259 259 257 254 253 251 244 240 241 238
62 45 27 9 360 340 355 355 347 328 321 320 326 323 325 324 323 323 319 320 319 319 317 317 316 315 318 321 318 318 317 316 323 320 320 317 320 320 319 316 314 313 315 316 318 318 317 315 316 312 313 312 301 273 260 258 260 260 254 249 241 233
72 54 14 349 347 338 354 0 345 327 318 323 326 326 325 324 324 323 323 321 320 319 319 319 319 319 324 323 319 316 316 317 320 320 319 322 319 322 319 315 314 317 321 319 316 315 313 317 319 314 311 317 330 333 324 308 278 260 255 247 242 237
68 49 13 331 329 347 355 350 336 322 320 324 326 328 325 323 322 321 321 322 320 320 323 324 325 329 328 326 321 319 322 324 321 319 319 321 323 319 312 311 322 324 322 315 317 319 322 321 319 318 318 321 323 320 315 312 307 279 255 249 245 245
98 64 337 303 311 354 349 338 325 325 322 323 329 326 326 323 326 325 322 321 322 323 326 325 328 329 326 329 327 329 329 329 324 324 326 326 322 309 308 319 323 326 319 315 322 326 322 315 316 320 320 320 319 316 311 306 301 299 298 279 255 244
107 139 250 287 329 357 333 327 320 326 330 329 330 330 330 325 325 322 319 321 324 325 326 327 328 330 328 325 326 328 332 325 327 327 321 323 313 319 325 319 325 321 306 308 328 326 316 316 317 312 314 314 314 312 308 302 295 292 291 280 281 271
126 166 259 298 357 345 331 326 322 324 327 328 335 335 331 327 324 324 325 326 326 325 328 332 331 333 329 329 327 331 328 329 334 335 334 332 339 339 339 343 338 339 326 332 334 325 325 321 318 321 326 326 322 316 307 298 290 281 278 278 274 270
141 161 243 318 352 343 326 321 317 325 332 339 339 337 329 324 324 322 323 327 329 328 332 330 332 332 329 329 329 334 333 331 334 343 350 350 348 346 345 346 349 350 346 351 343 338 342 335 335 338 337 335 332 324 316 305 291 280 272 265 263 254
162 172 224 4 349 338 320 318 320 333 333 338 335 333 328 325 325 325 323 323 320 327 331 332 331 331 332 332 334 336 337 335 335 334 345 354 356 350 350 351 354 355 351 358 356 354 345 349 348 349 347 345 342 336 328 318 299 281 266 259 248 242
163 173 188 40 345 331 318 327 324 334 334 336 334 335 330 325 326 318 319 317 323 328 331 332 333 334 337 338 339 340 340 343 343 344 340 336 347 353 357 356 357 357 355 1 359 1 360 359 356 358 356 355 354 351 348 343 335 314 286 261 245 231
164 179 137 66 21 315 328 332 329 337 329 333 332 333 322 319 316 313 309 321 324 329 330 332 331 334 334 338 343 341 342 340 341 341 337 333 337 343 348 352 357 356 354 4 3 3 3 5 3 4 3 5 5 3 3 13 23 24 21 24 359 298
166 146 87 68 3 335 349 325 324 327 324 330 334 328 323 320 323 322 321 331 336 328 329 328 329 329 329 337 345 344 344 342 341 337 336 331 332 332 340 338 344 349 351 4 4 6 6 7 7 9 8 12 13 11 10 31 25 18 7 11 7 2
154 126 97 77 315 2 344 312 326 326 327 332 332 324 322 322 326 331 323 324 328 336 331 333 327 328 327 339 342 344 342 336 333 347 343 333 333 323 316 333 347 341 339 360 9 9 6 8 7 11 12 14 18 19 25 33 21 23 13 5 356 2